Wind_Speed
30 29 30 31 31 32 37 38 36 35 34 33 30 29 29 28 27 25 24 24 26 27 29 28 29 30 32 32 34 31 28 24 23 23 23 22 17 14 16 17 17 19 19 21 22
34 33 33 33 34 35 36 40 41 40 39 37 36 34 32 33 32 30 28 26 27 28 31 34 32 33 33 33 34 34 30 27 26 26 24 22 21 20 19 17 17 17 16 19 22
36 36 36 36 36 38 39 40 43 45 44 42 41 40 38 36 35 33 32 29 30 30 31 33 33 33 34 34 33 35 33 32 31 30 26 23 24 25 25 23 20 19 22 25 28
38 40 38 39 38 39 40 41 43 45 47 47 46 45 44 41 39 37 35 33 32 31 32 32 36 36 34 33 33 35 36 33 34 30 29 27 28 31 32 31 29 27 27 28 27
40 42 40 43 41 41 41 42 43 46 48 48 50 51 49 48 43 41 38 37 36 34 34 32 35 40 39 34 34 34 36 34 33 34 30 29 29 33 35 35 35 35 35 34 31
37 39 42 43 43 42 43 43 43 44 45 47 50 52 52 53 50 46 43 40 40 39 38 35 36 39 39 39 37 35 35 35 33 33 33 33 29 32 33 35 34 33 32 31 29
32 34 36 39 43 44 45 45 46 45 44 44 46 50 54 55 54 51 48 45 42 41 41 40 38 40 39 40 41 40 37 36 34 32 32 36 33 31 32 32 32 32 32 30 33
31 33 35 37 42 44 45 46 46 45 45 44 44 47 51 54 55 53 52 51 45 43 44 43 40 40 39 42 43 41 40 39 34 35 34 31 35 31 32 33 32 32 33 35 38
33 34 36 37 40 43 43 44 44 46 44 43 42 42 47 49 53 56 56 54 52 51 48 45 41 39 42 44 45 42 40 39 37 34 35 33 37 33 37 39 37 37 39 43 44
40 39 39 39 41 42 40 41 38 39 40 42 42 44 47 47 47 53 56 55 55 53 51 47 42 42 45 46 47 43 42 43 42 37 34 35 39 45 40 42 41 45 47 48 50
46 45 44 44 43 42 42 40 37 37 39 40 41 44 48 50 49 50 52 55 53 51 51 49 45 45 47 48 46 45 43 43 44 44 37 40 36 45 51 53 51 49 50 51 53
49 47 48 48 47 47 47 45 42 36 35 38 41 43 49 53 51 54 53 51 53 51 50 48 51 51 52 52 49 45 43 47 45 45 42 41 36 43 52 57 55 55 59 58 56
58 56 55 53 51 50 50 49 47 43 33 38 42 45 48 50 52 55 54 50 49 52 52 50 55 57 55 55 50 45 47 49 49 47 46 44 37 42 52 58 62 65 63 60 57
63 62 62 60 54 54 52 51 49 48 37 35 46 45 47 49 48 53 54 52 51 54 55 53 59 60 58 58 56 51 54 52 52 51 48 53 34 41 50 58 65 66 63 60 62
53 58 61 61 62 61 58 54 50 48 36 37 44 49 49 50 51 52 51 52 54 57 59 60 61 61 60 61 61 55 56 58 54 56 53 54 52 44 58 61 65 62 62 62 61
61 59 57 59 57 64 65 64 59 55 42 46 46 50 54 54 54 54 55 56 58 59 59 62 62 62 65 64 62 62 61 59 58 60 55 60 59 50 58 57 60 61 64 62 64
66 64 62 65 65 64 66 66 58 52 50 51 55 58 55 56 60 60 58 57 60 64 64 66 66 67 66 66 65 66 68 70 66 66 63 62 57 54 55 56 62 65 65 66 65
68 69 67 70 71 69 70 64 48 45 51 51 55 58 61 62 63 63 61 59 63 66 70 71 65 69 65 69 71 72 74 78 77 74 67 63 59 54 53 61 66 69 67 68 71
78 76 75 77 78 76 76 67 55 51 58 62 69 67 61 65 68 70 69 64 67 71 76 77 70 72 74 74 76 76 78 81 86 83 76 63 53 50 55 67 70 72 71 73 76
87 88 83 88 89 87 88 72 63 65 67 67 66 69 65 70 72 70 67 65 70 73 81 82 82 76 76 76 76 80 79 81 85 86 80 63 56 51 61 68 72 74 76 78 81
93 90 84 93 95 95 87 77 76 76 77 79 76 71 69 71 74 77 69 68 71 76 84 87 89 80 72 73 75 78 77 83 87 84 87 79 55 60 69 70 75 80 80 83 88
104 104 93 97 102 98 94 88 90 85 86 86 84 81 76 80 78 75 77 77 84 84 83 87 96 90 81 77 80 82 84 87 87 88 89 94 61 73 69 75 82 86 86 89 95
111 111 105 102 99 96 94 91 89 87 87 93 92 85 83 83 86 80 75 80 90 91 90 93 97 92 81 81 87 91 87 86 90 90 88 99 75 80 82 87 94 91 91 97 102
121 116 118 109 105 100 106 98 96 92 94 90 94 96 96 95 94 93 89 90 90 96 99 102 100 93 87 86 90 89 88 87 92 89 94 93 98 77 90 97 95 95 93 100 105
123 127 120 117 106 108 108 105 102 99 105 102 95 96 98 107 107 100 103 103 106 102 102 106 105 100 103 96 106 105 94 89 89 94 106 95 105 87 100 102 100 96 107 106 106
124 125 124 121 119 118 116 112 109 101 111 104 109 95 107 110 105 108 110 114 113 110 109 105 104 109 107 102 112 115 98 96 90 99 101 105 98 101 103 110 100 109 108 112 110
132 134 131 130 130 131 120 122 118 120 117 110 111 112 112 108 116 116 119 119 113 119 116 114 119 112 118 115 125 109 90 104 94 96 108 110 100 104 111 114 109 112 116 118 114
Wind_Direction
263 263 265 265 263 266 259 254 255 256 258 261 266 274 285 284 288 295 299 308 315 316 319 327 329 335 339 343 347 345 341 333 336 328 328 329 330 328 327 324 329 320 319 324 330
265 267 266 268 268 268 265 260 258 259 257 259 264 267 273 279 282 289 295 303 308 310 314 316 319 327 333 340 342 344 339 332 327 329 322 324 330 334 330 325 317 318 320 321 321
264 268 270 271 270 273 269 265 261 259 261 260 261 264 266 270 274 280 287 294 299 305 310 314 319 320 328 334 335 340 334 331 328 325 321 318 322 326 322 320 318 307 313 317 318
264 266 267 270 272 273 272 273 269 265 262 261 261 263 266 267 269 272 277 283 290 294 303 309 314 319 322 327 330 332 334 325 327 321 315 309 315 318 317 315 311 307 306 312 313
269 269 269 270 272 273 276 276 277 272 267 264 263 261 262 264 268 271 272 276 283 286 296 305 308 314 317 321 325 326 330 325 323 321 317 308 309 305 310 311 310 307 305 310 314
260 267 269 271 271 271 274 274 279 279 277 271 268 264 264 265 268 270 271 272 277 282 288 298 305 308 312 313 318 318 324 321 316 315 314 310 313 306 307 305 305 306 307 311 316
265 265 267 271 272 273 274 271 275 277 277 278 275 272 270 268 268 268 270 270 272 276 283 292 298 302 306 309 310 313 315 317 312 310 311 306 308 304 305 306 307 306 306 311 313
271 275 274 272 272 272 273 272 272 273 275 277 278 275 273 272 269 271 269 269 271 272 280 288 292 297 301 303 306 305 308 317 311 304 304 305 304 301 300 305 316 318 314 317 318
267 274 277 276 276 275 272 272 270 272 276 277 276 277 277 276 273 272 268 269 269 271 275 284 287 291 295 298 302 301 301 307 312 306 301 301 302 300 305 306 313 318 319 321 323
269 271 273 276 277 277 276 275 273 273 277 280 280 277 275 277 278 272 270 269 270 270 272 280 282 285 291 295 299 297 295 298 304 308 304 298 300 298 297 299 304 312 314 314 316
269 270 274 277 274 278 281 280 284 283 281 283 280 280 277 275 275 276 270 268 268 269 272 277 279 283 288 293 294 293 290 289 297 303 303 301 297 297 298 298 300 306 309 311 312
267 268 269 272 275 273 276 277 281 285 290 289 286 280 276 273 273 274 272 269 268 268 271 275 279 284 288 291 290 289 288 287 293 300 304 302 299 302 300 299 298 302 304 306 309
267 269 270 272 274 275 274 275 276 279 282 292 293 286 276 271 272 274 275 273 271 270 271 274 279 285 287 287 287 288 285 287 291 296 300 303 305 303 300 299 301 304 304 306 308
265 268 271 270 271 273 275 275 275 277 281 285 290 292 280 278 276 275 276 274 272 272 274 278 280 283 284 284 284 285 286 287 291 293 297 298 299 302 299 294 300 303 301 305 306
267 269 272 272 270 269 269 270 272 274 281 283 284 285 285 281 278 279 277 276 275 275 276 277 277 279 282 283 284 286 287 290 293 294 300 294 303 303 296 298 299 296 296 301 302
266 264 270 274 273 272 269 269 269 275 286 280 279 280 280 281 282 280 281 280 279 278 279 278 278 280 283 283 284 288 288 289 291 293 298 292 301 310 299 299 293 291 292 296 301
266 269 269 266 272 273 271 273 275 282 281 277 274 274 277 280 282 283 284 286 286 284 283 282 282 283 284 284 286 288 288 289 289 292 295 294 302 304 302 300 292 291 293 297 299
269 270 272 272 271 270 270 270 277 273 279 279 278 272 272 276 277 280 282 286 286 286 284 283 282 285 285 285 285 288 290 290 292 292 291 295 301 301 300 295 293 293 297 298 299
270 274 273 272 273 272 275 278 280 275 273 276 273 276 276 274 275 277 280 282 281 283 284 283 283 280 281 283 287 289 290 295 295 294 295 297 298 304 301 294 293 296 298 298 300
267 271 274 270 271 272 275 279 280 274 273 273 272 273 274 275 275 278 278 281 281 284 283 283 282 281 283 286 289 291 294 295 292 295 297 297 302 303 293 291 295 297 298 301 302
264 269 271 269 268 268 276 274 275 274 271 273 276 273 270 273 276 274 277 280 279 278 278 281 281 282 287 289 290 292 294 291 290 297 297 299 304 301 289 295 295 295 297 300 300
263 266 267 266 268 270 274 271 271 271 270 272 275 275 274 272 271 276 275 275 276 277 281 283 281 283 284 287 289 290 291 290 293 293 295 299 303 295 295 295 294 297 302 301 303
264 263 267 261 261 265 269 267 267 270 273 270 271 274 275 277 276 274 274 274 274 275 276 279 280 283 287 287 285 285 286 289 290 292 298 293 302 299 300 296 294 297 300 301 304
264 263 267 267 261 266 264 262 263 264 268 272 271 270 273 276 276 275 278 277 277 276 275 274 281 286 286 287 286 288 286 285 287 293 290 291 293 302 299 294 297 297 301 299 301
261 265 265 265 264 266 263 262 265 263 268 268 274 269 267 272 274 280 278 275 276 276 276 276 280 287 284 286 285 286 290 294 289 290 285 293 291 302 294 297 293 298 299 306 306
261 262 266 267 268 268 265 271 267 268 265 267 267 267 264 274 278 273 274 272 272 276 280 278 280 281 283 282 284 282 287 294 290 286 289 288 296 295 297 296 301 304 303 306 306
262 264 264 266 267 269 271 270 270 271 273 273 269 268 271 277 275 272 272 273 276 272 281 279 283 284 283 280 283 283 289 287 294 288 286 288 297 296 293 298 301 304 304 308 308
Height
10835 10837 10838 10838 10838 10838 10838 10838 10838 10838 10838 10838 10839 10837 10836 10835 10834 10834 10833 10831 10829 10828 10826 10825 10823 10821 10818 10814 10811 10807 10804 10800 10797 10794 10791 10788 10787 10786 10785 10783 10782 10781 10780 10779 10778
10831 10831 10832 10833 10834 10834 10833 10833 10834 10834 10834 10834 10834 10834 10833 10831 10830 10829 10829 10827 10825 10824 10822 10821 10820 10817 10813 10810 10807 10803 10800 10798 10796 10792 10788 10785 10783 10783 10782 10781 10780 10779 10777 10776 10775
10826 10826 10827 10827 10828 10828 10828 10827 10827 10828 10828 10829 10829 10828 10828 10827 10826 10825 10824 10823 10822 10820 10818 10816 10815 10813 10810 10805 10802 10799 10796 10794 10792 10788 10786 10782 10780 10779 10777 10777 10777 10775 10773 10772 10770
10820 10821 10821 10821 10822 10822 10822 10822 10822 10822 10821 10822 10822 10822 10822 10822 10822 10820 10820 10819 10817 10816 10813 10811 10809 10808 10807 10803 10799 10796 10793 10789 10787 10785 10782 10779 10776 10773 10771 10770 10770 10770 10768 10766 10763
10814 10814 10814 10814 10815 10815 10815 10815 10814 10815 10816 10816 10815 10815 10815 10815 10815 10815 10815 10815 10813 10811 10809 10808 10805 10802 10800 10799 10796 10794 10790 10787 10783 10780 10777 10774 10774 10768 10765 10762 10761 10760 10759 10758 10756
10805 10806 10806 10806 10806 10807 10807 10807 10807 10807 10808 10809 10809 10808 10808 10808 10808 10809 10808 10808 10808 10807 10804 10802 10800 10797 10793 10791 10790 10788 10786 10783 10780 10775 10772 10767 10768 10763 10761 10758 10756 10754 10752 10751 10749
10797 10796 10796 10797 10797 10797 10797 10799 10799 10798 10799 10799 10800 10801 10800 10800 10800 10801 10801 10801 10801 10800 10799 10797 10795 10792 10789 10785 10783 10781 10779 10778 10775 10773 10768 10762 10762 10759 10756 10753 10752 10749 10747 10746 10743
10791 10790 10789 10788 10788 10788 10788 10788 10790 10789 10790 10790 10791 10791 10789 10789 10790 10791 10792 10792 10793 10793 10791 10790 10790 10787 10783 10780 10777 10776 10771 10769 10769 10766 10763 10759 10751 10752 10749 10745 10743 10740 10739 10737 10735
10783 10783 10782 10781 10780 10778 10778 10778 10781 10780 10780 10782 10782 10781 10779 10777 10778 10779 10780 10781 10782 10782 10782 10782 10782 10780 10777 10774 10771 10768 10767 10763 10761 10761 10757 10754 10745 10743 10739 10735 10733 10732 10730 10727 10724
10776 10775 10774 10773 10773 10771 10770 10770 10773 10773 10773 10773 10773 10772 10769 10767 10767 10766 10767 10768 10770 10771 10771 10772 10772 10771 10769 10767 10764 10762 10760 10756 10754 10755 10751 10748 10744 10733 10733 10728 10726 10723 10720 10717 10715
10767 10766 10766 10764 10764 10763 10764 10763 10766 10768 10766 10766 10766 10764 10760 10757 10756 10753 10753 10756 10756 10759 10760 10761 10762 10760 10758 10757 10755 10754 10752 10748 10744 10744 10747 10740 10741 10729 10720 10717 10716 10715 10711 10709 10705
10757 10756 10755 10755 10754 10754 10753 10754 10757 10760 10761 10759 10756 10756 10750 10746 10746 10742 10742 10744 10745 10748 10749 10751 10749 10748 10746 10745 10744 10744 10742 10737 10738 10735 10736 10734 10734 10724 10712 10702 10702 10702 10699 10698 10694
10746 10745 10744 10744 10744 10743 10743 10745 10746 10749 10756 10750 10748 10744 10739 10736 10735 10731 10731 10733 10735 10735 10737 10739 10736 10733 10733 10731 10732 10732 10731 10729 10728 10726 10724 10725 10730 10720 10700 10692 10686 10683 10679 10678 10678
10733 10733 10731 10732 10733 10730 10732 10734 10736 10737 10749 10749 10735 10732 10728 10725 10727 10721 10721 10722 10723 10723 10723 10728 10720 10721 10721 10717 10718 10722 10715 10717 10716 10715 10717 10709 10726 10718 10702 10684 10678 10671 10666 10665 10663
10720 10721 10719 10718 10722 10719 10719 10722 10726 10726 10740 10739 10731 10718 10714 10713 10713 10711 10711 10713 10713 10711 10710 10712 10710 10707 10705 10702 10700 10706 10703 10702 10702 10700 10707 10700 10704 10712 10692 10683 10670 10661 10655 10655 10652
10706 10707 10707 10704 10707 10705 10705 10709 10713 10719 10728 10725 10721 10713 10706 10703 10701 10701 10699 10699 10698 10697 10698 10693 10695 10694 10691 10688 10687 10686 10685 10686 10687 10685 10695 10686 10690 10701 10677 10672 10658 10649 10640 10641 10638
10692 10693 10694 10691 10692 10690 10691 10694 10702 10714 10714 10712 10704 10702 10699 10696 10691 10687 10690 10691 10685 10679 10681 10678 10679 10680 10678 10674 10672 10669 10666 10666 10673 10672 10676 10674 10681 10679 10665 10656 10644 10635 10631 10630 10623
10677 10678 10679 10677 10674 10673 10674 10680 10699 10706 10698 10692 10689 10687 10688 10683 10679 10677 10678 10679 10671 10666 10663 10663 10672 10662 10667 10659 10658 10658 10651 10642 10645 10651 10660 10664 10669 10666 10656 10637 10625 10618 10620 10615 10609
10657 10659 10665 10657 10652 10653 10654 10671 10688 10686 10684 10676 10669 10671 10673 10668 10663 10665 10667 10671 10659 10651 10642 10641 10656 10653 10649 10648 10646 10646 10638 10631 10618 10620 10629 10649 10654 10652 10637 10616 10609 10603 10602 10596 10590
10638 10643 10651 10635 10629 10629 10633 10664 10668 10665 10659 10656 10653 10653 10657 10653 10648 10647 10652 10658 10648 10640 10625 10621 10620 10635 10636 10638 10636 10626 10626 10616 10599 10595 10604 10631 10638 10634 10614 10601 10592 10587 10582 10578 10570
10617 10620 10632 10613 10607 10609 10626 10641 10646 10644 10639 10631 10637 10636 10638 10635 10630 10631 10639 10640 10630 10622 10609 10602 10596 10613 10624 10625 10619 10612 10612 10597 10584 10586 10574 10590 10628 10612 10592 10586 10574 10564 10562 10556 10546
10588 10595 10605 10593 10583 10594 10619 10620 10622 10623 10618 10614 10614 10618 10618 10613 10611 10615 10620 10616 10603 10602 10596 10585 10570 10586 10604 10609 10604 10597 10591 10582 10573 10569 10565 10556 10601 10586 10580 10567 10553 10547 10546 10536 10524
10555 10563 10566 10570 10573 10581 10588 10592 10594 10603 10598 10593 10592 10599 10595 10596 10590 10595 10596 10601 10586 10583 10577 10564 10553 10561 10585 10589 10580 10572 10578 10573 10561 10555 10559 10526 10566 10558 10552 10541 10527 10530 10523 10513 10503
10522 10522 10530 10536 10557 10555 10557 10564 10569 10576 10574 10573 10576 10572 10577 10573 10565 10570 10580 10574 10567 10561 10553 10539 10537 10553 10555 10565 10550 10551 10558 10558 10551 10545 10528 10524 10517 10560 10521 10510 10510 10505 10503 10489 10482
10487 10491 10500 10500 10528 10522 10520 10535 10544 10550 10551 10550 10552 10557 10547 10540 10546 10557 10549 10544 10538 10535 10532 10524 10521 10530 10527 10546 10517 10524 10536 10541 10541 10530 10491 10517 10489 10524 10493 10487 10488 10484 10473 10468 10454
10463 10464 10468 10472 10481 10485 10490 10505 10516 10525 10517 10524 10523 10529 10521 10520 10536 10527 10510 10508 10511 10515 10514 10508 10505 10504 10502 10516 10494 10488 10532 10518 10511 10500 10491 10475 10489 10480 10466 10452 10459 10448 10440 10435 10426
10440 10435 10437 10442 10440 10443 10468 10479 10483 10484 10488 10497 10495 10496 10497 10515 10489 10488 10484 10483 10487 10487 10491 10486 10484 10480 10474 10479 10462 10464 10520 10484 10493 10481 10457 10458 10475 10462 10444 10432 10434 10418 10408 10401 10393